Location: Aufkirchen
(47.9603°N, 11.3653°E)
Time: 13:14:41
(UTC+01:00)

Transit 2A Rocket - Pass Details

Date: 13 December 2020
Orbit: 592 x 910 km, 66.7° (Epoch: 21 January)

Event Time Altitude Azimuth Distance (km) Brightness Sun altitude
Rises 08:20:37 0° 316° (NW) 3,058 7.4 2.4°
Reaches altitude 10° 08:23:23 10° 302° (WNW) 2,084 6.6 2.8°
Maximum altitude 08:27:03 23° 250° (WSW) 1,336 6.1 3.3°
Drops below altitude 10° 08:30:33 10° 197° (SSW) 1,962 7.5 3.7°
Sets 08:33:04 0° 183° (S) 2,835 8.6 4.0°
